M I D A S
Marine Information and Data Acquisition System
Tripno 2132 of the Zeeleeuw from 2011-01-21 07:34:33 to 2011-01-21 16:03:05
Back to CruiseResearch ActivitiesStationsMapUnderway DataData graphs

EquipmentUnitsComments
TimeDGPSUTC
LatitudeDGPSDM.mWGS84
LongitudeDGPSDM.mWGS84
SpeedMeteo Stationm/sRelative wind speed
DirectionMeteo StationdegRelative wind direction
TemperatureMeteo Stationdeg CelciusAir temperature
PressureMeteo StationPaAtmospheric pressure
HumidityMeteo Station%Relative humidity
Missing or incorrect values are displayed as -999
Metereological data collected by the RV Zeeleeuw from 2011-01-21 07:39:10 to 2011-01-21 16:03:00
Time Latitude Longitude Speed Direction Temperature Pressure Humidity
2011-01-21 07:40 51°13.676 2°55.878 -999 26 3.8 103640 41
2011-01-21 07:41 51°13.689 2°55.81 -999 22 3.8 103650 41
2011-01-21 07:42 51°13.695 2°55.736 -999 22 3.8 103650 41
2011-01-21 07:43 51°13.701 2°55.733 -999 327 3.8 103640 41
2011-01-21 07:44 51°13.721 2°55.736 -999 337 3.8 103650 41
2011-01-21 07:45 51°13.755 2°55.711 1.9 343 3.9 103650 41
2011-01-21 07:46 51°13.831 2°55.63 4.9 347 3.9 103650 40
2011-01-21 07:46 51°13.898 2°55.578 5.4 340 4 103640 41
2011-01-21 07:48 51°14.097 2°55.433 6.8 339 4.1 103640 42
2011-01-21 07:49 51°14.241 2°55.314 10.3 342 4.2 103650 40
2011-01-21 07:50 51°14.384 2°55.175 7.2 342 4.2 103640 40
2011-01-21 07:51 51°14.537 2°55.005 6.8 350 4.3 103640 39
2011-01-21 07:52 51°14.624 2°54.717 7.1 352 4.5 103640 39
2011-01-21 07:53 51°14.689 2°54.378 8.1 351 4.5 103650 40
2011-01-21 07:54 51°14.762 2°54.037 6.4 349 4.5 103640 39
2011-01-21 07:55 51°14.836 2°53.703 7 352 4.5 103640 40
2011-01-21 07:56 51°14.904 2°53.36 7.4 348 4.6 103650 40
2011-01-21 07:57 51°14.972 2°53.014 9.1 348 4.6 103650 39
2011-01-21 07:58 51°15.052 2°52.677 7.1 347 4.6 103640 39
2011-01-21 07:59 51°15.126 2°52.334 9.9 346 4.6 103640 40
2011-01-21 08:00 51°15.207 2°51.995 9 344 4.6 103640 40
2011-01-21 08:01 51°15.262 2°51.639 6.9 348 4.6 103640 39
2011-01-21 08:02 51°15.28 2°51.264 7.8 350 4.6 103640 40
2011-01-21 08:03 51°15.259 2°50.877 6.4 350 4.6 103650 38
2011-01-21 08:04 51°15.243 2°50.485 6 350 4.6 103650 38
2011-01-21 08:05 51°15.204 2°50.095 6.1 350 4.6 103650 39
2011-01-21 08:06 51°15.15 2°49.705 4.8 350 4.6 103650 38
2011-01-21 08:07 51°15.097 2°49.315 6.2 350 4.6 103650 40
2011-01-21 08:08 51°15.045 2°48.926 5.6 350 4.6 103650 40
2011-01-21 08:09 51°15.015 2°48.534 8.5 353 4.6 103650 38
2011-01-21 08:10 51°15.007 2°48.143 9.3 352 4.7 103650 40
2011-01-21 08:11 51°14.999 2°47.763 7.7 352 4.7 103650 40
2011-01-21 08:12 51°14.991 2°47.392 6 353 4.6 103650 38
2011-01-21 08:13 51°14.971 2°47.03 5.9 351 4.6 103650 38
2011-01-21 08:14 51°14.94 2°46.672 8.3 349 4.7 103660 39
2011-01-21 08:15 51°14.899 2°46.314 6.6 353 4.7 103660 40
2011-01-21 08:16 51°14.856 2°45.95 7.2 347 4.7 103650 38
2011-01-21 08:17 51°14.781 2°45.591 7.2 354 4.7 103660 39
2011-01-21 08:18 51°14.688 2°45.24 6 358 4.6 103660 39
2011-01-21 08:19 51°14.588 2°44.894 6 351 4.6 103660 37
2011-01-21 08:20 51°14.478 2°44.554 4.4 354 4.6 103660 38
2011-01-21 08:21 51°14.334 2°44.252 3.6 355 4.7 103660 39
2011-01-21 08:22 51°14.178 2°43.95 2.8 351 4.7 103660 39
2011-01-21 08:23 51°14.023 2°43.655 0.1 352 4.7 103670 38
2011-01-21 08:24 51°13.867 2°43.362 -999 352 4.7 103670 39
2011-01-21 08:25 51°13.712 2°43.067 5 353 4.7 103670 39
2011-01-21 08:26 51°13.561 2°42.766 4.4 348 4.7 103660 37
2011-01-21 08:27 51°13.422 2°42.449 3.9 347 4.6 103670 38
2011-01-21 08:28 51°13.282 2°42.13 3.8 349 4.6 103670 37
2011-01-21 08:29 51°13.141 2°41.811 -999 347 4.7 103670 38
2011-01-21 08:30 51°12.998 2°41.491 4.5 348 4.7 103670 38
2011-01-21 08:31 51°12.856 2°41.17 4.6 357 4.7 103670 37
2011-01-21 08:32 51°12.714 2°40.852 4.1 348 4.8 103670 39
2011-01-21 08:33 51°12.572 2°40.536 4.1 348 4.7 103670 37
2011-01-21 08:34 51°12.429 2°40.224 2.3 348 4.7 103670 37
2011-01-21 08:35 51°12.29 2°39.91 4.9 357 4.8 103670 38
2011-01-21 08:36 51°12.149 2°39.597 4.6 356 4.9 103670 38
2011-01-21 08:37 51°12.011 2°39.283 5.3 355 4.7 103670 36
2011-01-21 08:38 51°11.872 2°38.969 3.6 356 4.7 103670 36
2011-01-21 08:39 51°11.729 2°38.663 0.1 349 4.8 103680 37
2011-01-21 08:40 51°11.59 2°38.352 -999 347 4.8 103670 38
2011-01-21 08:41 51°11.451 2°38.041 -999 348 4.8 103680 39
2011-01-21 08:42 51°11.311 2°37.726 -999 346 4.8 103670 39
2011-01-21 08:43 51°11.171 2°37.413 -999 347 4.8 103670 38
2011-01-21 08:44 51°11.032 2°37.101 -999 347 4.7 103670 37
2011-01-21 08:45 51°10.882 2°36.803 -999 343 4.8 103670 38
2011-01-21 08:46 51°10.686 2°36.582 -999 342 4.8 103670 38
2011-01-21 08:47 51°10.464 2°36.479 -999 22 4.8 103680 38
2011-01-21 08:48 51°10.25 2°36.6 5.7 20 4.9 103670 37
2011-01-21 08:49 51°10.038 2°36.735 4.1 18 4.8 103670 39
2011-01-21 08:50 51°9.823 2°36.843 3.9 26 4.9 103670 37
2011-01-21 08:51 51°9.607 2°36.939 2.8 321 4.9 103670 37
2011-01-21 08:52 51°9.4 2°36.773 3.1 345 4.9 103680 38
2011-01-21 08:53 51°9.28 2°36.438 5.9 347 4.9 103670 37
2011-01-21 08:54 51°9.171 2°36.085 3.3 347 4.8 103670 38
2011-01-21 08:55 51°9.046 2°35.741 4.8 347 4.8 103680 36
2011-01-21 08:56 51°8.922 2°35.395 5.5 351 4.8 103670 38
2011-01-21 08:57 51°8.802 2°35.051 4.4 351 4.9 103670 38
2011-01-21 08:58 51°8.677 2°34.694 5.9 348 4.9 103670 38
2011-01-21 08:59 51°8.555 2°34.352 6 352 4.9 103670 39
2011-01-21 09:00 51°8.431 2°33.996 6.8 350 4.9 103670 36
2011-01-21 09:01 51°8.31 2°33.645 5.6 352 4.9 103670 37
2011-01-21 09:02 51°8.19 2°33.296 5.2 350 4.9 103670 37
2011-01-21 09:03 51°8.07 2°32.949 4.7 352 4.9 103680 38
2011-01-21 09:04 51°7.953 2°32.61 4.4 354 4.9 103680 38
2011-01-21 09:05 51°7.946 2°32.258 7.7 346 4.9 103670 38
2011-01-21 09:06 51°8.079 2°31.964 10 344 4.9 103670 37
2011-01-21 09:07 51°8.23 2°31.701 9.4 336 4.9 103670 37
2011-01-21 09:08 51°8.38 2°31.794 9.7 321 5 103670 37
2011-01-21 09:09 51°8.502 2°32.015 8.9 325 5.1 103660 37
2011-01-21 09:10 51°8.633 2°32.226 11.9 327 5.1 103660 38
2011-01-21 09:11 51°8.76 2°32.448 10.6 327 5.1 103660 39
2011-01-21 09:12 51°8.887 2°32.67 10.3 329 5.1 103660 39
2011-01-21 09:13 51°9.014 2°32.898 8.8 329 5.1 103660 38
2011-01-21 09:14 51°9.145 2°33.124 7.7 328 5.1 103660 38
2011-01-21 09:15 51°9.274 2°33.36 7.7 327 5 103660 38
2011-01-21 09:16 51°9.414 2°33.587 9.3 326 5.1 103660 39
2011-01-21 09:17 51°9.551 2°33.817 8.1 325 5.1 103660 40
2011-01-21 09:18 51°9.688 2°34.048 8.2 325 5 103660 38
2011-01-21 09:19 51°9.827 2°34.276 7.4 325 5.1 103660 38
2011-01-21 09:20 51°9.967 2°34.505 7.3 325 5.1 103660 38
2011-01-21 09:21 51°10.112 2°34.725 7.7 327 5.1 103660 39
2011-01-21 09:22 51°10.263 2°34.936 11.6 325 5.1 103670 39
2011-01-21 09:23 51°10.419 2°35.131 9.4 330 5.1 103660 38
2011-01-21 09:24 51°10.578 2°35.317 9 329 5.1 103660 37
2011-01-21 09:25 51°10.739 2°35.5 10 328 5.1 103660 36
2011-01-21 09:26 51°10.9 2°35.684 12.1 327 5.1 103670 35
2011-01-21 09:27 51°11.062 2°35.866 11.9 329 5.1 103660 37
2011-01-21 09:28 51°11.224 2°36.049 9.5 328 5.1 103670 36
2011-01-21 09:29 51°11.386 2°36.229 10.8 329 5.1 103660 36
2011-01-21 09:30 51°11.547 2°36.411 11.3 329 5.1 103660 37
2011-01-21 09:31 51°11.709 2°36.591 9.1 328 5.1 103670 36
2011-01-21 09:32 51°11.87 2°36.769 12.8 322 5.1 103660 36
2011-01-21 09:33 51°12.03 2°36.946 5 323 5 103650 36
2011-01-21 09:34 51°12.196 2°37.116 8.9 325 5.1 103670 36
2011-01-21 09:35 51°12.363 2°37.285 11.4 324 5.1 103660 37
2011-01-21 09:36 51°12.526 2°37.452 10.1 322 5.1 103660 36
2011-01-21 09:37 51°12.69 2°37.62 9.1 322 5.1 103660 37
2011-01-21 09:38 51°12.857 2°37.792 8 325 5.1 103670 37
2011-01-21 09:39 51°13.036 2°37.927 8.5 328 5.1 103670 36
2011-01-21 09:40 51°13.228 2°37.877 9.3 338 5.1 103670 36
2011-01-21 09:41 51°13.41 2°37.715 11.7 338 5 103680 37
2011-01-21 09:42 51°13.511 2°37.413 8.4 343 5.1 103680 37
2011-01-21 09:43 51°13.609 2°37.089 7.5 345 5 103680 37
2011-01-21 09:44 51°13.615 2°36.713 10.3 347 5 103680 37
2011-01-21 09:45 51°13.6 2°36.328 7.2 347 4.9 103680 35
2011-01-21 09:46 51°13.588 2°35.943 5.9 346 5 103690 37
2011-01-21 09:47 51°13.568 2°35.562 5.4 345 5 103690 36
2011-01-21 09:48 51°13.421 2°35.274 -999 349 4.9 103700 36
2011-01-21 09:49 51°13.238 2°35.017 -999 347 5 103700 36
2011-01-21 09:50 51°13.056 2°34.755 -999 337 5 103700 36
2011-01-21 09:51 51°12.871 2°34.497 -999 340 5 103700 36
2011-01-21 09:52 51°12.694 2°34.231 -999 343 5 103700 36
2011-01-21 09:53 51°12.565 2°33.901 3.4 356 5 103700 36
2011-01-21 09:54 51°12.442 2°33.564 5 355 5 103690 37
2011-01-21 09:55 51°12.321 2°33.236 2.5 352 5 103700 36
2011-01-21 09:56 51°12.195 2°32.898 -999 355 5 103700 37
2011-01-21 09:57 51°12.072 2°32.568 -999 359 5 103700 37
2011-01-21 09:58 51°11.946 2°32.242 4 354 5 103700 37
2011-01-21 09:59 51°11.883 2°31.885 5.6 353 5 103690 37
2011-01-21 10:00 51°11.916 2°31.527 7.4 351 5 103690 36
2011-01-21 10:01 51°12.027 2°31.219 8.3 343 5 103690 37
2011-01-21 10:02 51°12.182 2°30.978 9.8 343 5 103690 36
2011-01-21 10:03 51°12.357 2°30.797 8.7 339 5 103680 37
2011-01-21 10:04 51°12.555 2°30.742 9.7 339 5.1 103690 37
2011-01-21 10:05 51°12.747 2°30.777 8.4 334 5.1 103690 37
2011-01-21 10:06 51°12.921 2°30.91 8.1 333 5.1 103690 37
2011-01-21 10:07 51°13.094 2°31.046 8.8 334 5.2 103680 38
2011-01-21 10:08 51°13.267 2°31.183 10.2 335 5.2 103690 36
2011-01-21 10:09 51°13.439 2°31.323 8.9 333 5.2 103690 36
2011-01-21 10:10 51°13.61 2°31.465 9.8 331 5.2 103680 37
2011-01-21 10:11 51°13.781 2°31.607 8.9 333 5.2 103690 38
2011-01-21 10:12 51°13.952 2°31.752 10.2 333 5.2 103680 38
2011-01-21 10:13 51°14.121 2°31.895 10.4 334 5.2 103680 36
2011-01-21 10:14 51°14.295 2°32.043 10.6 334 5.2 103680 37
2011-01-21 10:15 51°14.468 2°32.189 10 333 5.2 103690 37
2011-01-21 10:16 51°14.64 2°32.337 12.4 333 5.2 103680 37
2011-01-21 10:17 51°14.813 2°32.484 12.2 333 5.2 103680 36
2011-01-21 10:18 51°14.986 2°32.632 10.2 329 5.3 103680 36
2011-01-21 10:19 51°15.159 2°32.783 10.5 331 5.2 103670 37
2011-01-21 10:20 51°15.333 2°32.932 12.4 330 5.3 103680 37
2011-01-21 10:21 51°15.507 2°33.082 9.8 331 5.3 103690 38
2011-01-21 10:22 51°15.685 2°33.222 9.5 335 5.2 103680 37
2011-01-21 10:23 51°15.874 2°33.142 8.5 346 5.2 103670 36
2011-01-21 10:24 51°16.048 2°32.955 9.6 347 5.2 103670 36
2011-01-21 10:25 51°16.209 2°32.726 7.2 357 5.1 103670 37
2011-01-21 10:26 51°16.209 2°32.375 3.1 353 5.1 103680 37
2011-01-21 10:27 51°16.168 2°32.01 4.1 358 5 103680 36
2011-01-21 10:28 51°16.131 2°31.639 2.5 351 5.1 103680 38
2011-01-21 10:29 51°16.082 2°31.269 4.4 356 5.1 103670 37
2011-01-21 10:30 51°16.03 2°30.896 2.8 355 5.1 103680 37
2011-01-21 10:31 51°15.979 2°30.525 2.8 355 5.1 103680 36
2011-01-21 10:32 51°15.929 2°30.155 4.2 355 5.1 103680 37
2011-01-21 10:33 51°15.877 2°29.786 2.6 350 5.1 103690 37
2011-01-21 10:34 51°15.827 2°29.418 0.8 351 5.1 103690 37
2011-01-21 10:35 51°15.774 2°29.05 1.2 347 5.1 103690 38
2011-01-21 10:36 51°15.721 2°28.69 1.8 349 5.1 103680 38
2011-01-21 10:37 51°15.663 2°28.318 2.2 352 5.1 103680 38
2011-01-21 10:38 51°15.61 2°27.955 4 347 5.1 103680 38
2011-01-21 10:39 51°15.553 2°27.582 3.8 349 5.1 103680 38
2011-01-21 10:40 51°15.498 2°27.223 3.5 355 5.1 103670 38
2011-01-21 10:41 51°15.443 2°26.851 2.7 352 5.1 103680 37
2011-01-21 10:42 51°15.391 2°26.49 0.2 354 5.1 103680 38
2011-01-21 10:43 51°15.342 2°26.132 3.9 352 5.2 103680 38
2011-01-21 10:44 51°15.321 2°25.776 4.3 351 5.1 103680 38
2011-01-21 10:45 51°15.315 2°25.429 3.3 352 5.1 103670 38
2011-01-21 10:46 51°15.316 2°25.07 4.4 350 5.1 103670 37
2011-01-21 10:47 51°15.436 2°24.819 8.9 349 5.1 103660 36
2011-01-21 10:48 51°15.645 2°24.771 9.3 341 5.1 103660 38
2011-01-21 10:49 51°15.839 2°24.902 8.5 335 5.2 103650 37
2011-01-21 10:50 51°16.03 2°25.072 10.1 336 5.3 103650 38
2011-01-21 10:51 51°16.22 2°25.239 9.8 335 5.3 103660 38
2011-01-21 10:52 51°16.409 2°25.406 9.1 337 5.3 103650 38
2011-01-21 10:53 51°16.6 2°25.563 9.6 334 5.4 103650 37
2011-01-21 10:54 51°16.789 2°25.723 9.5 331 5.3 103650 37
2011-01-21 10:55 51°16.982 2°25.87 10.5 332 5.4 103650 38
2011-01-21 10:56 51°17.171 2°26.015 10 333 5.4 103650 37
2011-01-21 10:57 51°17.363 2°26.17 9.8 336 5.4 103650 37
2011-01-21 10:58 51°17.548 2°26.323 9.5 336 5.4 103630 38
2011-01-21 10:59 51°17.739 2°26.482 9.3 335 5.4 103650 39
2011-01-21 11:00 51°17.928 2°26.638 8.9 336 5.4 103660 38
2011-01-21 11:01 51°18.116 2°26.796 10.1 335 5.3 103650 37
2011-01-21 11:02 51°18.305 2°26.958 9 337 5.3 103650 38
2011-01-21 11:03 51°18.493 2°27.117 8.6 334 5.4 103650 39
2011-01-21 11:04 51°18.699 2°27.146 8.5 342 5.3 103650 39
2011-01-21 11:05 51°18.906 2°27.072 8.2 341 5.3 103650 38
2011-01-21 11:06 51°19.115 2°27.004 8.7 343 5.3 103650 38
2011-01-21 11:07 51°19.32 2°26.941 9.2 343 5.3 103660 39
2011-01-21 11:08 51°19.531 2°26.875 8.3 343 5.2 103650 39
2011-01-21 11:09 51°19.739 2°26.813 9 344 5.2 103650 38
2011-01-21 11:10 51°19.947 2°26.751 7.6 343 5.2 103640 40
2011-01-21 11:11 51°20.154 2°26.687 8.5 344 5.2 103630 40
2011-01-21 11:12 51°20.359 2°26.618 7.8 341 5.2 103650 38
2011-01-21 11:13 51°20.565 2°26.554 9.5 343 5.2 103640 40
2011-01-21 11:14 51°20.769 2°26.49 7.1 341 5.2 103640 39
2011-01-21 11:15 51°20.981 2°26.423 6.8 341 5.2 103650 39
2011-01-21 11:16 51°21.186 2°26.357 7.4 340 5.2 103640 39
2011-01-21 11:17 51°21.398 2°26.289 6.7 343 5.3 103650 39
2011-01-21 11:18 51°21.603 2°26.221 7.9 340 5.3 103650 39
2011-01-21 11:19 51°21.813 2°26.15 8.9 341 5.3 103650 40
2011-01-21 11:20 51°22.017 2°26.084 7.6 340 5.3 103640 38
2011-01-21 11:21 51°22.229 2°26.018 7.6 342 5.3 103640 38
2011-01-21 11:22 51°22.438 2°25.955 9 341 5.3 103640 38
2011-01-21 11:23 51°22.649 2°25.893 8.5 341 5.3 103640 38
2011-01-21 11:24 51°22.86 2°25.842 6.4 344 5.3 103640 39
2011-01-21 11:25 51°23.072 2°25.794 7.3 340 5.3 103630 40
2011-01-21 11:26 51°23.285 2°25.848 9.3 336 5.3 103630 38
2011-01-21 11:27 51°23.476 2°26.007 8.5 333 5.3 103640 39
2011-01-21 11:28 51°23.665 2°26.203 9.8 337 5.4 103630 39
2011-01-21 11:29 51°23.857 2°26.384 10.8 333 5.4 103630 40
2011-01-21 11:30 51°24.049 2°26.566 9.3 333 5.4 103620 39
2011-01-21 11:31 51°24.244 2°26.744 10.6 335 5.4 103630 39
2011-01-21 11:32 51°24.438 2°26.919 11.8 338 5.4 103630 39
2011-01-21 11:33 51°24.633 2°27.093 10.6 334 5.4 103600 40
2011-01-21 11:34 51°24.827 2°27.269 14.9 332 5.4 103630 40
2011-01-21 11:35 51°25.022 2°27.443 12.5 333 5.2 103630 40
2011-01-21 11:36 51°25.212 2°27.615 14.1 335 5.1 103610 40
2011-01-21 11:37 51°25.4 2°27.803 11 333 4.9 103620 42
2011-01-21 11:38 51°25.588 2°27.992 13.2 332 4.7 103620 43
2011-01-21 11:39 51°25.777 2°28.18 13.1 329 4.6 103630 45
2011-01-21 11:40 51°25.966 2°28.37 10.5 335 4.6 103630 45
2011-01-21 11:41 51°26.154 2°28.557 10.9 330 4.5 103620 45
2011-01-21 11:42 51°26.344 2°28.75 11.3 331 4.5 103630 45
2011-01-21 11:43 51°26.533 2°28.936 10.5 329 4.5 103630 46
2011-01-21 11:44 51°26.721 2°29.125 10.3 330 4.5 103620 46
2011-01-21 11:45 51°26.909 2°29.315 11.9 328 4.5 103610 47
2011-01-21 11:46 51°27.098 2°29.5 10.5 329 4.4 103620 47
2011-01-21 11:47 51°27.286 2°29.692 11.9 328 4.4 103620 47
2011-01-21 11:48 51°27.476 2°29.885 12 332 4.2 103620 46
2011-01-21 11:49 51°27.667 2°30.083 9.2 328 4.1 103620 47
2011-01-21 11:50 51°27.855 2°30.271 10 330 4 103620 48
2011-01-21 11:51 51°28.048 2°30.472 9.9 328 3.9 103620 48
2011-01-21 11:52 51°28.236 2°30.665 7.9 327 3.9 103620 49
2011-01-21 11:53 51°28.432 2°30.862 9.7 332 3.9 103620 49
2011-01-21 11:54 51°28.622 2°31.057 8 331 3.9 103620 48
2011-01-21 11:55 51°28.817 2°31.26 8.5 329 3.9 103620 49
2011-01-21 11:56 51°29.011 2°31.457 7.2 331 3.9 103620 48
2011-01-21 11:57 51°29.204 2°31.655 8.3 330 4 103620 48
2011-01-21 11:58 51°29.396 2°31.855 8.5 329 4.1 103610 49
2011-01-21 11:59 51°29.588 2°32.054 8.4 327 4.2 103610 48
2011-01-21 12:00 51°29.779 2°32.253 8.5 327 4.2 103610 47
2011-01-21 12:01 51°29.969 2°32.451 8.7 328 4.3 103610 49
2011-01-21 12:02 51°30.161 2°32.65 8 327 4.3 103610 48
2011-01-21 12:03 51°30.357 2°32.829 7.9 328 4.3 103610 47
2011-01-21 12:04 51°30.563 2°32.979 8.2 330 4.4 103610 48
2011-01-21 12:05 51°30.756 2°33.178 7.6 328 4.4 103610 48
2011-01-21 12:06 51°30.947 2°33.381 8.6 329 4.5 103600 48
2011-01-21 12:07 51°31.133 2°33.6 9.9 329 4.5 103600 49
2011-01-21 12:08 51°31.316 2°33.814 8.4 330 4.6 103600 48
2011-01-21 12:09 51°31.503 2°34.04 9.7 328 4.6 103590 47
2011-01-21 12:10 51°31.696 2°34.214 9.2 334 4.7 103600 47
2011-01-21 12:11 51°31.917 2°34.221 8.5 338 4.7 103590 48
2011-01-21 12:12 51°32.133 2°34.227 9 334 4.8 103590 47
2011-01-21 12:13 51°32.355 2°34.29 8.9 334 4.8 103600 48
2011-01-21 12:14 51°32.573 2°34.356 8.2 334 4.8 103590 46
2011-01-21 12:15 51°32.799 2°34.422 10.5 337 4.8 103600 47
2011-01-21 12:16 51°33.019 2°34.483 8.4 335 4.8 103600 47
2011-01-21 12:17 51°33.247 2°34.548 9.5 334 4.8 103600 47
2011-01-21 12:18 51°33.469 2°34.612 9.6 333 4.8 103590 46
2011-01-21 12:19 51°33.691 2°34.676 8.9 332 4.8 103590 47
2011-01-21 12:20 51°33.91 2°34.739 8.8 334 4.8 103590 47
2011-01-21 12:21 51°34.131 2°34.807 7.6 334 4.8 103600 47
2011-01-21 12:22 51°34.352 2°34.871 8.7 334 4.8 103590 47
2011-01-21 12:23 51°34.57 2°34.931 7.8 332 4.8 103590 46
2011-01-21 12:24 51°34.791 2°34.995 8.6 331 4.8 103590 46
2011-01-21 12:25 51°35.017 2°35.057 9 332 4.8 103590 46
2011-01-21 12:26 51°35.235 2°35.122 9.1 333 4.8 103590 46
2011-01-21 12:27 51°35.461 2°35.183 8 332 4.8 103590 46
2011-01-21 12:28 51°35.683 2°35.24 8.6 334 4.8 103590 47
2011-01-21 12:29 51°35.905 2°35.3 8.3 334 4.8 103590 48
2011-01-21 12:30 51°36.123 2°35.357 7.4 332 4.9 103590 48
2011-01-21 12:31 51°36.349 2°35.415 8.2 332 4.9 103590 47
2011-01-21 12:32 51°36.568 2°35.472 8.9 333 4.9 103580 47
2011-01-21 12:33 51°36.794 2°35.533 9.2 333 4.9 103590 46
2011-01-21 12:34 51°37.017 2°35.592 8.7 333 4.9 103590 47
2011-01-21 12:35 51°37.241 2°35.65 10.3 332 4.9 103580 47
2011-01-21 12:36 51°37.461 2°35.711 9 334 4.9 103590 46
2011-01-21 12:37 51°37.689 2°35.774 9.9 331 4.9 103590 46
2011-01-21 12:38 51°37.914 2°35.834 9.5 333 5 103590 46
2011-01-21 12:39 51°38.14 2°35.894 10.6 333 5 103580 44
2011-01-21 12:40 51°38.366 2°35.956 11 333 5.1 103590 45
2011-01-21 12:41 51°38.593 2°36.018 11 334 5.1 103590 45
2011-01-21 12:42 51°38.816 2°36.114 8.8 335 5.1 103590 45
2011-01-21 12:43 51°39.038 2°36.218 8.9 330 5.2 103590 44
2011-01-21 12:44 51°39.257 2°36.323 9.8 335 5.2 103580 44
2011-01-21 12:45 51°39.483 2°36.429 9.9 334 5.2 103580 44
2011-01-21 12:46 51°39.701 2°36.529 11.3 333 5.2 103580 43
2011-01-21 12:47 51°39.926 2°36.635 9.9 333 5.2 103580 43
2011-01-21 12:48 51°40.144 2°36.738 10.3 333 5.3 103580 44
2011-01-21 12:49 51°40.37 2°36.84 11.7 332 5.2 103590 43
2011-01-21 12:50 51°40.588 2°36.939 11.5 332 5.2 103580 44
2011-01-21 12:51 51°40.814 2°37.042 10.4 330 5.3 103590 44
2011-01-21 12:52 51°41.034 2°37.139 10.6 328 5.2 103580 44
2011-01-21 12:53 51°41.261 2°37.242 10.7 331 5.2 103580 45
2011-01-21 12:54 51°41.484 2°37.343 9.6 329 5.2 103580 43
2011-01-21 12:55 51°41.707 2°37.441 10.9 330 5.2 103590 43
2011-01-21 12:56 51°41.923 2°37.566 8.9 325 5.1 103590 44
2011-01-21 12:57 51°41.987 2°37.895 7 21 5.1 103580 44
2011-01-21 12:58 51°41.99 2°38.272 8.3 20 5.2 103580 44
2011-01-21 12:59 51°41.994 2°38.651 7.5 22 5.1 103570 44
2011-01-21 13:00 51°41.999 2°39.023 8 315 5.2 103570 43
2011-01-21 13:01 51°42 2°39.401 8.5 321 5.2 103580 44
2011-01-21 13:02 51°42.02 2°39.779 8.2 317 5.2 103580 44
2011-01-21 13:03 51°42.038 2°40.157 9.8 319 5.3 103570 44
2011-01-21 13:04 51°42.056 2°40.543 7.8 318 5.3 103570 44
2011-01-21 13:05 51°42.075 2°40.924 8.7 21 5.3 103570 43
2011-01-21 13:06 51°42.098 2°41.298 8 317 5.3 103570 44
2011-01-21 13:07 51°42.116 2°41.688 7.8 319 5.3 103570 43
2011-01-21 13:08 51°42.132 2°42.064 7.2 318 5.3 103560 43
2011-01-21 13:09 51°42.148 2°42.453 7.7 316 5.3 103570 43
2011-01-21 13:10 51°42.166 2°42.831 7.7 317 5.3 103560 43
2011-01-21 13:11 51°42.184 2°43.222 8.1 317 5.3 103560 43
2011-01-21 13:12 51°42.203 2°43.606 9.2 23 5.3 103570 43
2011-01-21 13:13 51°42.224 2°43.992 7.7 318 5.3 103560 43
2011-01-21 13:14 51°42.244 2°44.376 7.5 320 5.3 103570 43
2011-01-21 13:15 51°42.246 2°44.757 7.1 320 5.3 103560 43
2011-01-21 13:16 51°42.198 2°45.123 5.2 316 5.3 103570 44
2011-01-21 13:17 51°42.034 2°45.337 4.1 321 5.3 103570 43
2011-01-21 13:18 51°41.827 2°45.38 2.7 324 5.3 103580 42
2011-01-21 13:19 51°41.625 2°45.368 2.3 332 5.3 103570 43
2011-01-21 13:20 51°41.428 2°45.29 -999 333 5.3 103570 43
2011-01-21 13:21 51°41.248 2°45.148 -999 334 5.3 103570 43
2011-01-21 13:22 51°41.067 2°45.009 -999 336 5.2 103570 43
2011-01-21 13:23 51°40.887 2°44.859 -999 340 5.3 103580 43
2011-01-21 13:24 51°40.711 2°44.717 -999 337 5.2 103570 43
2011-01-21 13:25 51°40.535 2°44.554 -999 340 5.2 103570 43
2011-01-21 13:26 51°40.365 2°44.389 -999 341 5.2 103570 42
2011-01-21 13:27 51°40.192 2°44.225 -999 335 5.2 103580 42
2011-01-21 13:28 51°40.023 2°44.065 -999 338 5.2 103580 42
2011-01-21 13:29 51°39.85 2°43.897 -999 337 5.3 103580 43
2011-01-21 13:30 51°39.682 2°43.74 -999 343 5.3 103580 42
2011-01-21 13:31 51°39.51 2°43.575 -999 344 5.2 103580 42
2011-01-21 13:32 51°39.34 2°43.41 -999 336 5.3 103570 43
2011-01-21 13:33 51°39.168 2°43.249 -999 336 5.3 103580 43
2011-01-21 13:34 51°38.996 2°43.09 -999 335 5.3 103570 43
2011-01-21 13:35 51°38.827 2°42.928 -999 337 5.3 103580 43
2011-01-21 13:36 51°38.656 2°42.769 -999 341 5.3 103580 44
2011-01-21 13:37 51°38.485 2°42.604 -999 337 5.3 103570 44
2011-01-21 13:38 51°38.312 2°42.444 -999 337 5.2 103570 44
2011-01-21 13:39 51°38.14 2°42.294 -999 335 5.2 103570 44
2011-01-21 13:40 51°37.948 2°42.2 -999 328 5.2 103580 43
2011-01-21 13:41 51°37.754 2°42.101 -999 329 5.2 103570 43
2011-01-21 13:42 51°37.566 2°42.007 -999 331 5.2 103580 43
2011-01-21 13:43 51°37.371 2°41.911 -999 326 5.3 103580 44
2011-01-21 13:44 51°37.179 2°41.829 -999 329 5.3 103580 44
2011-01-21 13:45 51°36.982 2°41.747 -999 326 5.3 103580 44
2011-01-21 13:46 51°36.791 2°41.672 -999 326 5.3 103570 44
2011-01-21 13:47 51°36.593 2°41.593 -999 334 5.2 103570 44
2011-01-21 13:48 51°36.398 2°41.514 -999 329 5.2 103580 44
2011-01-21 13:49 51°36.207 2°41.44 -999 331 5.3 103570 44
2011-01-21 13:50 51°36.011 2°41.367 -999 330 5.2 103570 43
2011-01-21 13:51 51°35.813 2°41.292 -999 331 5.2 103570 44
2011-01-21 13:52 51°35.618 2°41.223 -999 331 5.2 103570 44
2011-01-21 13:53 51°35.423 2°41.156 -999 327 5.3 103570 44
2011-01-21 13:54 51°35.263 2°41.096 -999 327 5.3 103570 44
2011-01-21 13:55 51°35.159 2°41.077 -999 322 5.3 103570 44
2011-01-21 13:56 51°35.01 2°40.996 -999 339 5.2 103580 44
2011-01-21 13:57 51°34.835 2°40.874 -999 334 5.2 103570 43
2011-01-21 13:58 51°34.655 2°40.752 -999 330 5.2 103570 43
2011-01-21 13:59 51°34.55 2°40.676 -999 327 5.2 103570 43
2011-01-21 14:00 51°34.483 2°40.647 -999 315 5.3 103570 43
2011-01-21 14:01 51°34.426 2°40.632 -999 23 5.3 103570 43
2011-01-21 14:02 51°34.377 2°40.615 -999 23 5.3 103570 43
2011-01-21 14:03 51°34.326 2°40.602 -999 23 5.3 103570 43
2011-01-21 14:04 51°34.279 2°40.588 -999 23 5.3 103570 43
2011-01-21 14:05 51°34.232 2°40.571 -999 37 5.4 103570 43
2011-01-21 14:06 51°34.186 2°40.552 -999 37 5.3 103570 42
2011-01-21 14:07 51°34.129 2°40.53 -999 7 5.3 103570 43
2011-01-21 14:08 51°34.008 2°40.458 -999 336 5.3 103570 43
2011-01-21 14:09 51°33.837 2°40.338 -999 335 5.3 103560 43
2011-01-21 14:10 51°33.652 2°40.209 -999 338 5.3 103570 43
2011-01-21 14:11 51°33.47 2°40.081 -999 337 5.3 103570 44
2011-01-21 14:12 51°33.28 2°39.99 -999 336 5.2 103570 43
2011-01-21 14:13 51°33.081 2°39.953 -999 331 5.2 103570 43
2011-01-21 14:14 51°32.883 2°39.912 -999 334 5.2 103570 42
2011-01-21 14:15 51°32.69 2°39.867 -999 331 5.3 103570 43
2011-01-21 14:16 51°32.489 2°39.822 -999 327 5.3 103560 43
2011-01-21 14:17 51°32.292 2°39.777 -999 329 5.3 103570 43
2011-01-21 14:18 51°32.094 2°39.734 -999 329 5.3 103570 43
2011-01-21 14:19 51°31.898 2°39.69 -999 328 5.3 103570 43
2011-01-21 14:20 51°31.702 2°39.692 -999 326 5.2 103570 43
2011-01-21 14:21 51°31.5 2°39.718 -999 326 5.3 103570 43
2011-01-21 14:22 51°31.299 2°39.74 -999 326 5.3 103560 43
2011-01-21 14:23 51°31.1 2°39.762 -999 329 5.3 103570 44
2011-01-21 14:24 51°30.9 2°39.794 -999 323 5.3 103570 44
2011-01-21 14:25 51°30.705 2°39.89 -999 23 5.3 103570 44
2011-01-21 14:26 51°30.518 2°40.045 -999 322 5.3 103560 44
2011-01-21 14:27 51°30.331 2°40.199 -999 321 5.3 103570 44
2011-01-21 14:28 51°30.148 2°40.343 -999 322 5.4 103560 44
2011-01-21 14:29 51°29.962 2°40.49 -999 321 5.4 103560 44
2011-01-21 14:30 51°29.772 2°40.641 -999 319 5.4 103560 43
2011-01-21 14:31 51°29.59 2°40.79 -999 320 5.4 103560 44
2011-01-21 14:32 51°29.406 2°40.966 -999 318 5.4 103560 44
2011-01-21 14:33 51°29.225 2°41.148 -999 320 5.4 103570 44
2011-01-21 14:34 51°29.047 2°41.325 -999 316 5.4 103560 44
2011-01-21 14:35 51°28.866 2°41.503 -999 317 5.5 103560 44
2011-01-21 14:36 51°28.681 2°41.678 -999 320 5.4 103560 44
2011-01-21 14:37 51°28.502 2°41.852 -999 317 5.4 103550 43
2011-01-21 14:38 51°28.318 2°42.033 -999 317 5.4 103560 42
2011-01-21 14:39 51°28.134 2°42.21 -999 316 5.4 103560 42
2011-01-21 14:40 51°27.952 2°42.386 -999 23 5.5 103560 42
2011-01-21 14:41 51°27.771 2°42.559 -999 318 5.6 103560 42
2011-01-21 14:42 51°27.586 2°42.734 -999 325 5.6 103560 42
2011-01-21 14:43 51°27.403 2°42.915 -999 327 5.6 103560 41
2011-01-21 14:44 51°27.22 2°43.092 -999 318 5.6 103560 41
2011-01-21 14:45 51°27.036 2°43.266 -999 323 5.6 103560 41
2011-01-21 14:46 51°26.85 2°43.435 -999 320 5.6 103560 40
2011-01-21 14:47 51°26.665 2°43.608 -999 321 5.6 103560 41
2011-01-21 14:48 51°26.475 2°43.781 -999 325 5.6 103550 41
2011-01-21 14:49 51°26.29 2°43.956 -999 323 5.5 103560 40
2011-01-21 14:50 51°26.109 2°44.141 -999 320 5.5 103560 41
2011-01-21 14:51 51°25.93 2°44.323 -999 322 5.5 103550 41
2011-01-21 14:52 51°25.745 2°44.511 -999 326 5.5 103550 41
2011-01-21 14:53 51°25.566 2°44.69 -999 321 5.5 103550 41
2011-01-21 14:54 51°25.38 2°44.871 -999 325 5.5 103560 40
2011-01-21 14:55 51°25.2 2°45.049 -999 323 5.5 103550 41
2011-01-21 14:56 51°25.015 2°45.231 -999 324 5.4 103550 41
2011-01-21 14:57 51°24.837 2°45.412 -999 327 5.3 103550 41
2011-01-21 14:58 51°24.651 2°45.593 -999 323 5.3 103550 41
2011-01-21 14:59 51°24.471 2°45.772 -999 323 5.2 103550 41
2011-01-21 15:00 51°24.284 2°45.954 -999 323 5.2 103560 41
2011-01-21 15:01 51°24.105 2°46.13 -999 324 5.2 103560 41
2011-01-21 15:02 51°23.922 2°46.312 -999 325 5.2 103560 41
2011-01-21 15:03 51°23.738 2°46.489 -999 324 5.2 103560 41
2011-01-21 15:04 51°23.558 2°46.673 -999 323 5.2 103560 41
2011-01-21 15:05 51°23.372 2°46.855 -999 320 5.1 103550 41
2011-01-21 15:06 51°23.191 2°47.038 -999 321 5.1 103560 41
2011-01-21 15:07 51°23.013 2°47.22 -999 319 5.1 103560 41
2011-01-21 15:08 51°22.834 2°47.404 -999 322 5.1 103560 41
2011-01-21 15:09 51°22.656 2°47.596 -999 316 5.1 103560 40
2011-01-21 15:10 51°22.481 2°47.782 -999 320 5.1 103560 40
2011-01-21 15:11 51°22.305 2°47.977 -999 316 5.2 103550 41
2011-01-21 15:12 51°22.125 2°48.168 -999 320 5.1 103550 40
2011-01-21 15:13 51°21.941 2°48.357 -999 316 5.1 103560 40
2011-01-21 15:14 51°21.759 2°48.553 -999 316 5.1 103560 40
2011-01-21 15:15 51°21.572 2°48.742 -999 320 5.1 103550 40
2011-01-21 15:16 51°21.39 2°48.926 -999 318 5.1 103560 40
2011-01-21 15:17 51°21.203 2°49.12 -999 316 5.1 103560 40
2011-01-21 15:18 51°21.018 2°49.31 -999 318 5.1 103560 39
2011-01-21 15:19 51°20.842 2°49.515 -999 316 5.1 103550 40
2011-01-21 15:20 51°20.669 2°49.717 -999 23 5 103560 40
2011-01-21 15:21 51°20.496 2°49.925 4.5 24 5 103550 39
2011-01-21 15:22 51°20.326 2°50.12 4 317 5 103550 41
2011-01-21 15:23 51°20.136 2°50.278 3.3 322 5 103560 40
2011-01-21 15:24 51°19.95 2°50.436 2.5 318 5 103540 40
2011-01-21 15:25 51°19.757 2°50.599 4.2 322 5 103560 39
2011-01-21 15:26 51°19.568 2°50.75 4.3 320 5 103560 40
2011-01-21 15:27 51°19.371 2°50.878 3.2 320 5 103560 41
2011-01-21 15:28 51°19.175 2°51.008 0.5 318 5 103560 41
2011-01-21 15:29 51°18.981 2°51.142 4.6 318 5 103560 41
2011-01-21 15:30 51°18.781 2°51.262 3.5 321 5 103560 41
2011-01-21 15:31 51°18.587 2°51.393 3.8 316 5 103550 40
2011-01-21 15:32 51°18.394 2°51.531 -999 319 5 103560 40
2011-01-21 15:33 51°18.202 2°51.668 3.6 318 5 103550 41
2011-01-21 15:34 51°18.01 2°51.808 3.1 315 5 103560 39
2011-01-21 15:35 51°17.814 2°51.944 2.8 318 4.9 103560 40
2011-01-21 15:36 51°17.624 2°52.078 3.7 320 5 103560 41
2011-01-21 15:37 51°17.424 2°52.213 3.4 316 5 103560 41
2011-01-21 15:38 51°17.234 2°52.349 3.2 321 5 103560 41
2011-01-21 15:39 51°17.038 2°52.489 0.1 24 5 103570 40
2011-01-21 15:40 51°16.85 2°52.638 -999 316 5 103560 40
2011-01-21 15:41 51°16.658 2°52.8 -999 316 5 103560 40
2011-01-21 15:42 51°16.471 2°52.953 -999 322 5 103570 40
2011-01-21 15:43 51°16.272 2°53.086 3.3 316 5 103570 40
2011-01-21 15:44 51°16.082 2°53.229 2.6 22 5 103570 40
2011-01-21 15:45 51°15.888 2°53.4 3.9 28 4.9 103570 40
2011-01-21 15:46 51°15.709 2°53.585 4.8 25 4.9 103560 40
2011-01-21 15:47 51°15.532 2°53.788 5.2 25 5 103560 42
2011-01-21 15:48 51°15.36 2°54 5.5 20 4.9 103560 40
2011-01-21 15:49 51°15.187 2°54.227 3.9 26 4.9 103560 41
2011-01-21 15:50 51°15.022 2°54.444 4.6 26 4.9 103570 39
2011-01-21 15:51 51°14.856 2°54.645 5.9 21 4.9 103570 42
2011-01-21 15:52 51°14.702 2°54.847 3.8 26 4.8 103560 41
2011-01-21 15:53 51°14.534 2°55.02 3 22 4.8 103570 40
2011-01-21 15:54 51°14.368 2°55.185 4 27 4.8 103570 41
2011-01-21 15:55 51°14.22 2°55.336 0.4 20 4.8 103580 42
2011-01-21 15:56 51°14.091 2°55.441 0.1 251 4.8 103570 41
2011-01-21 15:57 51°13.992 2°55.518 -999 270 4.9 103570 41
2011-01-21 15:58 51°13.898 2°55.592 -999 269 4.8 103570 40
2011-01-21 15:59 51°13.8 2°55.675 0.1 257 4.9 103570 41
2011-01-21 16:00 51°13.733 2°55.762 -999 261 4.9 103570 41
2011-01-21 16:01 51°13.687 2°55.853 -999 248 4.9 103580 41
2011-01-21 16:02 51°13.667 2°55.93 3 19 4.9 103580 41